Home   Weather   Baltimore   Past weeks

Flag for USA Past Weather in Baltimore, Maryland, USA — Yesterday and Last 2 Weeks

Now
45 °F

Fog.


Feels Like: 45 °F
Forecast: 48 / 72 °F
Wind: No wind

Location: Baltimore-Washington International Airport

Current Time: Feb 23, 2017 at 6:41:01 am

Latest Report: Feb 23, 2017 at 5:54 am


Visibility: 0 mi

Pressure: 29.88 "Hg

Humidity: 97%

Dew Point: 44 °F

Location of BaltimoreLocation

Past Weather in Baltimore — Graph

°F

Baltimore Temperature Yesterday

Maximum temperature yesterday: 62 °F (at 2:54 pm)
Minimum temperature yesterday: 43 °F (at 4:54 am)
Average temperature yesterday: 50 °F

High & Low Weather Summary for the Past Weeks

 TemperatureHumidityPressure
High70 °F (Feb 8, 12:54 pm)100% (Feb 9, 4:01 am)30.41 "Hg (Feb 9, 4:01 am)
Low20 °F (Feb 10, 3:54 am)21% (Feb 18, 3:54 pm)29.41 "Hg (Feb 15, 12:54 pm)
Average43 °F59%29.91 "Hg
* Reported Feb 8 5:54 am — Feb 23 5:24 am, Baltimore, Weather by CustomWeather, © 2017

Note: Actual official high and low records may vary slightly from our data, if they occured in-between our weather recording intervals... More about our weather records

Advertising

Baltimore Weather History for the Previous 24 Hours

Scroll right to see more
 ConditionsComfort  
Time TempWeatherWind HumidityBarometerVisibility
5:24 am
Thu, Feb 23
46 °FPartly cloudy.No wind96%29.88 "Hg9 mi
4:54 am47 °FPassing clouds.No wind97%29.87 "Hg10 mi
3:54 am48 °FPassing clouds.No wind93%29.86 "Hg10 mi
2:54 am49 °FLow clouds.No wind93%29.87 "Hg10 mi
1:54 am47 °FLow clouds.No wind97%29.89 "Hg10 mi
1:33 am47 °FLow clouds.No wind93%29.89 "Hg10 mi
12:54 am45 °FMostly cloudy.No wind100%29.89 "Hg10 mi
11:54 pm
Wed, Feb 22
45 °FPartly cloudy.No wind97%29.90 "Hg10 mi
10:54 pm46 °FPassing clouds.No wind93%29.91 "Hg10 mi
9:54 pm48 °FPassing clouds.No wind89%29.90 "Hg10 mi
8:54 pm51 °FPassing clouds.No wind83%29.91 "Hg10 mi
7:54 pm51 °FPassing clouds.No wind83%29.90 "Hg10 mi
6:54 pm51 °FPartly cloudy.No wind83%29.91 "Hg10 mi
5:54 pm54 °FPartly cloudy.5 mph74%29.90 "Hg10 mi
4:54 pm59 °FBroken clouds.6 mph62%29.91 "Hg10 mi
3:54 pm61 °FPartly sunny.7 mph58%29.90 "Hg10 mi
2:54 pm62 °FMostly cloudy.6 mph54%29.90 "Hg10 mi
1:54 pm60 °FMore clouds than sun.7 mph56%29.92 "Hg10 mi
12:54 pm60 °FCloudy.No wind53%29.95 "Hg10 mi
11:54 am58 °FMostly cloudy.3 mph56%29.97 "Hg10 mi
10:54 am54 °FCloudy.No wind64%30.00 "Hg10 mi
9:54 am49 °FCloudy.No wind74%30.02 "Hg10 mi
8:54 am46 °FCloudy.No wind79%30.04 "Hg10 mi
7:54 am45 °FCloudy.No wind82%30.05 "Hg10 mi
6:54 am44 °FMostly cloudy.No wind82%30.03 "Hg10 mi
Weather by CustomWeather, © 2017

See weather overviewHow to use our weather pages